Time,TemperatureF,DewpointF,PressureIn,WindDirection,WindDirectionDegrees,WindSpeedMPH,WindSpeedGustMPH,Humidity,HourlyPrecipIn,Conditions,Clouds,dailyrainin,SoftwareType,DateUTC
2013-06-07 00:01:00,57.4,55.1,29.95,SSE,148,3.0,3.0,92,0.04,,OVC031,0.00,VWS V14.01,2013-06-07 04:01:00,
2013-06-07 00:02:00,57.4,55.1,29.95,SSE,157,5.0,5.0,92,0.04,,OVC031,0.00,VWS V14.01,2013-06-07 04:02:00,
2013-06-07 00:07:00,57.4,55.1,29.95,SSE,150,3.0,9.0,92,0.05,,OVC031,0.01,VWS V14.01,2013-06-07 04:07:00,
2013-06-07 00:12:00,57.4,55.1,29.95,SSE,163,2.0,10.0,92,0.05,,OVC031,0.01,VWS V14.01,2013-06-07 04:12:00,
2013-06-07 00:17:00,57.4,55.1,29.94,SSE,161,1.0,7.0,92,0.04,,OVC031,0.01,VWS V14.01,2013-06-07 04:17:00,
2013-06-07 00:22:00,57.5,55.2,29.94,South,183,3.0,9.0,92,0.05,,OVC031,0.02,VWS V14.01,2013-06-07 04:22:00,
2013-06-07 00:27:00,57.4,55.1,29.94,SSE,152,3.0,13.0,92,0.05,,OVC031,0.02,VWS V14.01,2013-06-07 04:27:00,
2013-06-07 00:32:00,57.4,55.1,29.94,SSE,150,4.0,6.0,92,0.05,,OVC031,0.02,VWS V14.01,2013-06-07 04:32:00,
2013-06-07 00:37:00,57.6,55.3,29.95,SSE,148,4.0,8.0,92,0.05,,OVC031,0.02,VWS V14.01,2013-06-07 04:37:00,
2013-06-07 00:42:00,57.6,55.3,29.94,ESE,117,2.0,8.0,92,0.05,,OVC031,0.02,VWS V14.01,2013-06-07 04:42:00,
2013-06-07 00:47:00,57.5,55.2,29.94,SE,129,7.0,9.0,92,0.04,,OVC031,0.02,VWS V14.01,2013-06-07 04:47:00,
2013-06-07 00:52:00,57.4,55.1,29.95,SSE,160,4.0,9.0,92,0.04,,OVC031,0.02,VWS V14.01,2013-06-07 04:52:00,
2013-06-07 00:57:00,57.2,54.9,29.94,ESE,114,2.0,9.0,92,0.04,,OVC031,0.02,VWS V14.01,2013-06-07 04:57:00,
2013-06-07 01:02:00,57.2,54.9,29.94,East,88,3.0,8.0,92,0.03,,-RA,0.03,VWS V14.01,2013-06-07 05:02:00,
2013-06-07 01:07:00,57.1,54.8,29.93,SSE,152,2.0,9.0,92,0.03,,-RA,0.03,VWS V14.01,2013-06-07 05:07:00,
2013-06-07 01:12:00,57.1,54.8,29.93,SE,131,2.0,9.0,92,0.04,,-RA,0.04,VWS V14.01,2013-06-07 05:12:00,
2013-06-07 01:17:00,57.2,54.9,29.93,ESE,104,1.0,3.0,92,0.03,,-RA,0.04,VWS V14.01,2013-06-07 05:17:00,
2013-06-07 01:22:00,57.1,54.8,29.93,SSW,200,3.0,6.0,92,0.04,,-RA,0.05,VWS V14.01,2013-06-07 05:22:00,
2013-06-07 01:27:00,57.1,54.8,29.93,SSE,150,4.0,6.0,92,0.04,,-RA,0.05,VWS V14.01,2013-06-07 05:27:00,
2013-06-07 01:32:00,57.1,54.8,29.93,South,170,3.0,5.0,92,0.03,,-RA,0.05,VWS V14.01,2013-06-07 05:32:00,
2013-06-07 01:37:00,57.1,54.8,29.92,ESE,104,5.0,6.0,92,0.03,,-RA,0.05,VWS V14.01,2013-06-07 05:37:00,
2013-06-07 01:42:00,57.1,54.8,29.92,ESE,110,4.0,8.0,92,0.04,,OVC014,0.06,VWS V14.01,2013-06-07 05:42:00,
2013-06-07 01:47:00,57.0,54.7,29.92,SE,145,3.0,10.0,92,0.04,,OVC014,0.06,VWS V14.01,2013-06-07 05:47:00,
2013-06-07 01:52:00,57.0,54.7,29.92,SE,141,1.0,11.0,92,0.04,,OVC014,0.06,VWS V14.01,2013-06-07 05:52:00,
2013-06-07 01:57:00,57.1,54.8,29.92,SE,135,3.0,11.0,92,0.05,,OVC014,0.07,VWS V14.01,2013-06-07 05:57:00,
2013-06-07 02:02:00,57.2,55.2,29.92,SE,139,2.0,4.0,93,0.04,,-RA,0.07,VWS V14.01,2013-06-07 06:02:00,
2013-06-07 02:07:00,57.3,55.3,29.92,SSE,150,5.0,7.0,93,0.04,,-RA,0.07,VWS V14.01,2013-06-07 06:07:00,
2013-06-07 02:12:00,57.2,55.2,29.92,SSE,155,4.0,11.0,93,0.04,,-RA,0.07,VWS V14.01,2013-06-07 06:12:00,
2013-06-07 02:17:00,57.2,55.2,29.92,SSE,165,3.0,8.0,93,0.03,,-RA,0.07,VWS V14.01,2013-06-07 06:17:00,
2013-06-07 02:22:00,57.1,54.8,29.92,SSE,163,4.0,8.0,92,0.04,,-RA,0.08,VWS V14.01,2013-06-07 06:22:00,
2013-06-07 02:27:00,57.0,54.7,29.92,South,173,4.0,11.0,92,0.04,,-RA,0.08,VWS V14.01,2013-06-07 06:27:00,
2013-06-07 02:32:00,57.0,55.0,29.91,SW,218,6.0,9.0,93,0.03,,-RA,0.08,VWS V14.01,2013-06-07 06:32:00,
2013-06-07 02:37:00,56.8,54.5,29.91,SSE,148,6.0,12.0,92,0.04,,OVC050,0.09,VWS V14.01,2013-06-07 06:37:00,
2013-06-07 02:42:00,56.7,54.4,29.91,SSE,153,5.0,12.0,92,0.04,,OVC050,0.09,VWS V14.01,2013-06-07 06:42:00,
2013-06-07 02:47:00,56.6,54.3,29.91,SE,130,2.0,5.0,92,0.03,,OVC050,0.09,VWS V14.01,2013-06-07 06:47:00,
2013-06-07 02:52:00,56.5,54.2,29.90,SSE,152,3.0,8.0,92,0.03,,OVC050,0.09,VWS V14.01,2013-06-07 06:52:00,
2013-06-07 02:57:00,56.5,54.2,29.90,ESE,117,4.0,10.0,92,0.04,,OVC050,0.10,VWS V14.01,2013-06-07 06:57:00,
2013-06-07 03:02:00,56.5,54.5,29.89,SE,136,4.0,7.0,93,0.03,,-RA,0.10,VWS V14.01,2013-06-07 07:02:00,
2013-06-07 03:07:00,56.6,54.6,29.89,ESE,117,6.0,8.0,93,0.04,,-RA,0.11,VWS V14.01,2013-06-07 07:07:00,
2013-06-07 03:12:00,56.6,54.6,29.89,SE,128,5.0,8.0,93,0.04,,-RA,0.11,VWS V14.01,2013-06-07 07:12:00,
2013-06-07 03:17:00,56.6,54.6,29.89,SE,139,3.0,9.0,93,0.04,,-RA,0.11,VWS V14.01,2013-06-07 07:17:00,
2013-06-07 03:22:00,56.7,54.7,29.89,East,86,4.0,9.0,93,0.04,,-RA,0.11,VWS V14.01,2013-06-07 07:22:00,
2013-06-07 03:27:00,56.7,54.7,29.89,East,97,1.0,9.0,93,0.04,,-RA,0.11,VWS V14.01,2013-06-07 07:27:00,
2013-06-07 03:32:00,56.7,54.7,29.89,SE,131,3.0,7.0,93,0.03,,-RA,0.11,VWS V14.01,2013-06-07 07:32:00,
2013-06-07 03:37:00,56.8,54.8,29.89,ESE,108,4.0,8.0,93,0.03,,-RA,0.11,VWS V14.01,2013-06-07 07:37:00,
2013-06-07 03:42:00,56.8,54.8,29.88,SE,141,3.0,9.0,93,0.04,,-RA,0.12,VWS V14.01,2013-06-07 07:42:00,
2013-06-07 03:47:00,56.9,54.9,29.89,South,177,4.0,8.0,93,0.03,,-RA,0.12,VWS V14.01,2013-06-07 07:47:00,
2013-06-07 03:52:00,57.0,55.0,29.88,SE,125,3.0,8.0,93,0.03,,OVC015,0.12,VWS V14.01,2013-06-07 07:52:00,
2013-06-07 03:57:00,57.0,55.0,29.88,ESE,114,5.0,9.0,93,0.03,,OVC015,0.12,VWS V14.01,2013-06-07 07:57:00,
2013-06-07 04:02:00,57.0,55.0,29.88,ESE,107,10.0,10.0,93,0.02,,OVC015,0.12,VWS V14.01,2013-06-07 08:02:00,
2013-06-07 04:07:00,57.0,55.0,29.87,South,169,5.0,10.0,93,0.02,,OVC015,0.12,VWS V14.01,2013-06-07 08:07:00,
2013-06-07 04:12:00,57.1,55.1,29.87,SSE,156,1.0,10.0,93,0.03,,OVC015,0.13,VWS V14.01,2013-06-07 08:12:00,
2013-06-07 04:17:00,57.2,55.2,29.87,ESE,106,5.0,7.0,93,0.02,,OVC015,0.13,VWS V14.01,2013-06-07 08:17:00,
2013-06-07 04:22:00,57.2,55.2,29.87,South,172,7.0,9.0,93,0.03,,OVC015,0.14,VWS V14.01,2013-06-07 08:22:00,
2013-06-07 04:27:00,57.3,55.3,29.87,South,170,3.0,9.0,93,0.04,,OVC015,0.15,VWS V14.01,2013-06-07 08:27:00,
2013-06-07 04:32:00,57.3,55.3,29.87,SSE,167,3.0,8.0,93,0.06,,-RA,0.17,VWS V14.01,2013-06-07 08:32:00,
2013-06-07 04:37:00,57.3,55.3,29.87,SSE,149,2.0,8.0,93,0.07,,-RA,0.18,VWS V14.01,2013-06-07 08:37:00,
2013-06-07 04:42:00,57.3,55.3,29.87,South,176,4.0,9.0,93,0.08,,-RA,0.19,VWS V14.01,2013-06-07 08:42:00,
2013-06-07 04:47:00,57.4,55.4,29.87,ESE,117,4.0,6.0,93,0.08,,-RA,0.20,VWS V14.01,2013-06-07 08:47:00,
2013-06-07 04:52:00,57.4,55.4,29.87,SE,143,2.0,6.0,93,0.09,,-RA,0.21,VWS V14.01,2013-06-07 08:52:00,
2013-06-07 04:57:00,57.4,55.4,29.86,ESE,117,4.0,6.0,93,0.10,,-RA,0.22,VWS V14.01,2013-06-07 08:57:00,
2013-06-07 05:02:00,57.3,55.3,29.86,East,94,2.0,10.0,93,0.12,,-RA,0.24,VWS V14.01,2013-06-07 09:02:00,
2013-06-07 05:07:00,57.4,55.4,29.86,ESE,108,4.0,10.0,93,0.14,,-RA,0.26,VWS V14.01,2013-06-07 09:07:00,
2013-06-07 05:12:00,57.4,55.4,29.86,SE,125,3.0,10.0,93,0.15,,-RA,0.27,VWS V14.01,2013-06-07 09:12:00,
2013-06-07 05:17:00,57.4,55.4,29.86,ESE,104,4.0,8.0,93,0.14,,-RA,0.27,VWS V14.01,2013-06-07 09:17:00,
2013-06-07 05:22:00,57.5,55.5,29.85,SE,125,7.0,9.0,93,0.16,,-RA,0.29,VWS V14.01,2013-06-07 09:22:00,
2013-06-07 05:27:00,57.5,55.5,29.85,ENE,68,3.0,10.0,93,0.17,,-RA,0.30,VWS V14.01,2013-06-07 09:27:00,
2013-06-07 05:32:00,57.5,55.5,29.86,ESE,115,6.0,7.0,93,0.16,,RA,0.32,VWS V14.01,2013-06-07 09:32:00,
2013-06-07 05:37:00,57.5,55.5,29.86,SE,139,4.0,11.0,93,0.17,,RA,0.33,VWS V14.01,2013-06-07 09:37:00,
2013-06-07 05:42:00,57.6,55.6,29.86,SSE,150,5.0,11.0,93,0.17,,RA,0.33,VWS V14.01,2013-06-07 09:42:00,
2013-06-07 05:47:00,57.6,55.6,29.86,SE,139,4.0,6.0,93,0.13,,RA,0.33,VWS V14.01,2013-06-07 09:47:00,
2013-06-07 05:52:00,57.6,55.6,29.85,South,176,8.0,10.0,93,0.14,,RA,0.34,VWS V14.01,2013-06-07 09:52:00,
2013-06-07 05:57:00,57.7,55.7,29.85,ESE,114,7.0,10.0,93,0.14,,RA,0.34,VWS V14.01,2013-06-07 09:57:00,
2013-06-07 06:02:00,57.7,55.7,29.85,SE,136,3.0,7.0,93,0.11,,-RA,0.34,VWS V14.01,2013-06-07 10:02:00,
2013-06-07 06:07:00,57.8,55.8,29.85,SSE,148,1.0,16.0,93,0.12,,-RA,0.35,VWS V14.01,2013-06-07 10:07:00,
2013-06-07 06:12:00,57.8,55.8,29.85,South,173,5.0,16.0,93,0.12,,-RA,0.35,VWS V14.01,2013-06-07 10:12:00,
2013-06-07 06:17:00,57.8,55.8,29.84,East,97,5.0,14.0,93,0.08,,-RA,0.35,VWS V14.01,2013-06-07 10:17:00,
2013-06-07 06:22:00,57.9,55.9,29.84,SSE,158,3.0,14.0,93,0.09,,RA,0.36,VWS V14.01,2013-06-07 10:22:00,
2013-06-07 06:27:00,57.9,55.9,29.84,ESE,117,10.0,14.0,93,0.09,,RA,0.36,VWS V14.01,2013-06-07 10:27:00,
2013-06-07 06:32:00,58.0,56.0,29.84,ESE,105,5.0,18.0,93,0.05,,RA,0.37,VWS V14.01,2013-06-07 10:32:00,
2013-06-07 06:37:00,58.1,56.1,29.85,ESE,107,8.0,18.0,93,0.05,,RA,0.37,VWS V14.01,2013-06-07 10:37:00,
2013-06-07 06:42:00,58.1,56.1,29.85,SE,134,9.0,18.0,93,0.05,,RA,0.37,VWS V14.01,2013-06-07 10:42:00,
2013-06-07 06:47:00,58.1,56.1,29.85,SSE,153,1.0,10.0,93,0.04,,-RA,0.37,VWS V14.01,2013-06-07 10:47:00,
2013-06-07 06:52:00,58.2,56.2,29.85,ESE,117,2.0,10.0,93,0.04,,-RA,0.37,VWS V14.01,2013-06-07 10:52:00,
2013-06-07 06:57:00,58.3,56.3,29.85,ESE,120,6.0,11.0,93,0.05,,-RA,0.38,VWS V14.01,2013-06-07 10:57:00,
2013-06-07 07:02:00,58.3,56.3,29.84,SSW,197,8.0,12.0,93,0.04,,RA,0.38,VWS V14.01,2013-06-07 11:02:00,
2013-06-07 07:07:00,58.3,56.3,29.84,SE,132,6.0,13.0,93,0.04,,RA,0.38,VWS V14.01,2013-06-07 11:07:00,
2013-06-07 07:12:00,58.4,56.4,29.84,ESE,111,7.0,13.0,93,0.04,,RA,0.38,VWS V14.01,2013-06-07 11:12:00,
2013-06-07 07:17:00,58.5,56.5,29.84,SE,146,6.0,12.0,93,0.03,,-RA,0.38,VWS V14.01,2013-06-07 11:17:00,
2013-06-07 07:22:00,58.5,56.5,29.85,ESE,113,7.0,12.0,93,0.03,,-RA,0.38,VWS V14.01,2013-06-07 11:22:00,
2013-06-07 07:27:00,58.5,56.5,29.85,ESE,107,12.0,12.0,93,0.03,,-RA,0.38,VWS V14.01,2013-06-07 11:27:00,
2013-06-07 07:32:00,58.5,56.5,29.85,East,100,5.0,9.0,93,0.02,,-RA,0.38,VWS V14.01,2013-06-07 11:32:00,
2013-06-07 07:37:00,58.4,56.4,29.85,SSW,197,4.0,10.0,93,0.02,,-RA,0.38,VWS V14.01,2013-06-07 11:37:00,
2013-06-07 07:42:00,58.4,56.4,29.84,East,95,3.0,12.0,93,0.02,,-RA,0.38,VWS V14.01,2013-06-07 11:42:00,
2013-06-07 07:47:00,58.4,56.4,29.84,SE,127,5.0,10.0,93,0.02,,-RA,0.39,VWS V14.01,2013-06-07 11:47:00,
2013-06-07 07:52:00,58.4,56.4,29.84,SSE,155,2.0,10.0,93,0.02,,-RA,0.39,VWS V14.01,2013-06-07 11:52:00,
2013-06-07 07:57:00,58.4,56.4,29.84,SE,134,5.0,12.0,93,0.03,,-RA,0.40,VWS V14.01,2013-06-07 11:57:00,
2013-06-07 08:02:00,58.4,56.4,29.84,SE,136,7.0,8.0,93,0.02,,-RA,0.40,VWS V14.01,2013-06-07 12:02:00,
2013-06-07 08:07:00,58.4,56.4,29.84,SE,136,4.0,15.0,93,0.03,,-RA,0.41,VWS V14.01,2013-06-07 12:07:00,
2013-06-07 08:12:00,58.4,56.4,29.84,SSE,148,3.0,15.0,93,0.03,,-RA,0.41,VWS V14.01,2013-06-07 12:12:00,
2013-06-07 08:17:00,58.4,56.4,29.84,South,181,4.0,10.0,93,0.03,,-RA,0.41,VWS V14.01,2013-06-07 12:17:00,
2013-06-07 08:22:00,58.4,56.4,29.83,SE,141,5.0,11.0,93,0.03,,-RA,0.41,VWS V14.01,2013-06-07 12:22:00,
2013-06-07 08:27:00,58.4,56.4,29.84,SE,128,3.0,11.0,93,0.03,,-RA,0.41,VWS V14.01,2013-06-07 12:27:00,
2013-06-07 08:32:00,58.4,56.4,29.84,ESE,104,6.0,7.0,93,0.04,,-RA,0.42,VWS V14.01,2013-06-07 12:32:00,
2013-06-07 08:37:00,58.3,56.3,29.84,East,87,5.0,13.0,93,0.04,,-RA,0.42,VWS V14.01,2013-06-07 12:37:00,
2013-06-07 08:42:00,58.2,56.2,29.84,SSE,163,6.0,14.0,93,0.04,,-RA,0.42,VWS V14.01,2013-06-07 12:42:00,
2013-06-07 08:47:00,58.2,56.2,29.84,ESE,110,5.0,9.0,93,0.03,,-RA,0.42,VWS V14.01,2013-06-07 12:47:00,
2013-06-07 08:52:00,58.1,56.1,29.84,ESE,104,5.0,12.0,93,0.03,,-RA,0.42,VWS V14.01,2013-06-07 12:52:00,
2013-06-07 08:57:00,58.1,56.1,29.84,SE,131,2.0,12.0,93,0.03,,-RA,0.42,VWS V14.01,2013-06-07 12:57:00,
2013-06-07 09:02:00,58.1,56.1,29.84,SSE,165,5.0,7.0,93,0.02,,RA,0.42,VWS V14.01,2013-06-07 13:02:00,
2013-06-07 09:07:00,58.0,56.0,29.83,ESE,121,5.0,9.0,93,0.03,,RA,0.43,VWS V14.01,2013-06-07 13:07:00,
2013-06-07 09:12:00,57.9,55.9,29.84,SSE,160,8.0,15.0,93,0.03,,RA,0.43,VWS V14.01,2013-06-07 13:12:00,
2013-06-07 09:17:00,57.8,55.8,29.84,SSE,165,5.0,9.0,93,0.03,,RA,0.44,VWS V14.01,2013-06-07 13:17:00,
2013-06-07 09:22:00,57.8,55.8,29.84,SE,130,4.0,9.0,93,0.04,,RA,0.45,VWS V14.01,2013-06-07 13:22:00,
2013-06-07 09:27:00,57.7,55.7,29.84,East,92,4.0,9.0,93,0.05,,RA,0.46,VWS V14.01,2013-06-07 13:27:00,
2013-06-07 09:32:00,57.6,55.6,29.84,SSE,155,3.0,7.0,93,0.06,,RA,0.47,VWS V14.01,2013-06-07 13:32:00,
2013-06-07 09:37:00,57.6,55.6,29.84,ESE,109,4.0,8.0,93,0.07,,RA,0.48,VWS V14.01,2013-06-07 13:37:00,
2013-06-07 09:42:00,57.6,55.6,29.84,ESE,105,5.0,8.0,93,0.08,,RA,0.49,VWS V14.01,2013-06-07 13:42:00,
2013-06-07 09:47:00,57.6,55.6,29.83,NE,37,5.0,7.0,93,0.07,,RA,0.49,VWS V14.01,2013-06-07 13:47:00,
2013-06-07 09:52:00,57.6,55.6,29.83,SE,132,4.0,7.0,93,0.07,,RA,0.49,VWS V14.01,2013-06-07 13:52:00,
2013-06-07 09:57:00,57.6,55.6,29.83,SSE,155,7.0,7.0,93,0.07,,RA,0.49,VWS V14.01,2013-06-07 13:57:00,
2013-06-07 10:02:00,57.5,55.5,29.83,ESE,107,5.0,10.0,93,0.08,,RA,0.50,VWS V14.01,2013-06-07 14:02:00,
2013-06-07 10:07:00,57.5,55.5,29.83,ESE,114,6.0,10.0,93,0.08,,RA,0.50,VWS V14.01,2013-06-07 14:07:00,
2013-06-07 10:12:00,57.5,55.5,29.83,SSE,148,1.0,10.0,93,0.09,,RA,0.51,VWS V14.01,2013-06-07 14:12:00,
2013-06-07 10:17:00,57.5,55.5,29.83,SE,141,5.0,7.0,93,0.08,,RA,0.51,VWS V14.01,2013-06-07 14:17:00,
2013-06-07 10:22:00,57.6,55.6,29.83,SSE,148,2.0,9.0,93,0.09,,RA,0.52,VWS V14.01,2013-06-07 14:22:00,
2013-06-07 10:27:00,57.6,55.6,29.83,ESE,117,6.0,12.0,93,0.09,,RA,0.52,VWS V14.01,2013-06-07 14:27:00,
2013-06-07 10:32:00,57.7,55.7,29.82,SSE,160,7.0,7.0,93,0.07,,RA,0.53,VWS V14.01,2013-06-07 14:32:00,
2013-06-07 10:37:00,57.7,55.7,29.82,SSE,163,5.0,9.0,93,0.08,,RA,0.54,VWS V14.01,2013-06-07 14:37:00,
2013-06-07 10:42:00,57.8,55.8,29.82,East,86,5.0,11.0,93,0.10,,RA,0.56,VWS V14.01,2013-06-07 14:42:00,
2013-06-07 10:47:00,57.9,55.9,29.82,East,90,6.0,6.0,93,0.08,,-RA,0.57,VWS V14.01,2013-06-07 14:47:00,
2013-06-07 10:52:00,57.9,55.9,29.82,ESE,110,2.0,9.0,93,0.08,,-RA,0.57,VWS V14.01,2013-06-07 14:52:00,
2013-06-07 10:57:00,58.0,56.0,29.82,SSW,194,3.0,9.0,93,0.09,,-RA,0.58,VWS V14.01,2013-06-07 14:57:00,
2013-06-07 11:02:00,58.2,56.2,29.83,East,98,4.0,7.0,93,0.08,, +RA,0.58,VWS V14.01,2013-06-07 15:02:00,
2013-06-07 11:07:00,58.1,56.1,29.83,South,176,3.0,9.0,93,0.09,, +RA,0.59,VWS V14.01,2013-06-07 15:07:00,
2013-06-07 11:12:00,58.2,56.2,29.83,SSE,156,1.0,9.0,93,0.10,, +RA,0.60,VWS V14.01,2013-06-07 15:12:00,
2013-06-07 11:17:00,58.3,56.3,29.83,SSE,167,2.0,5.0,93,0.11,,RA,0.62,VWS V14.01,2013-06-07 15:17:00,
2013-06-07 11:22:00,58.4,56.4,29.83,ESE,108,8.0,10.0,93,0.15,,RA,0.66,VWS V14.01,2013-06-07 15:22:00,
2013-06-07 11:27:00,58.5,56.5,29.83,SSE,162,5.0,10.0,93,0.18,,-RA,0.69,VWS V14.01,2013-06-07 15:27:00,
2013-06-07 11:32:00,58.7,56.7,29.83,SSW,210,2.0,3.0,93,0.19,,-RA,0.72,VWS V14.01,2013-06-07 15:32:00,
2013-06-07 11:37:00,58.7,56.7,29.83,SE,124,0.0,7.0,93,0.22,,-RA,0.75,VWS V14.01,2013-06-07 15:37:00,
2013-06-07 11:42:00,58.8,56.8,29.84,SE,127,3.0,9.0,93,0.23,,RA,0.76,VWS V14.01,2013-06-07 15:42:00,
2013-06-07 11:47:00,58.9,56.9,29.84,South,190,3.0,3.0,93,0.21,,RA,0.77,VWS V14.01,2013-06-07 15:47:00,
2013-06-07 11:52:00,58.9,56.9,29.84,ESE,104,3.0,8.0,93,0.22,,-RA,0.78,VWS V14.01,2013-06-07 15:52:00,
2013-06-07 11:57:00,59.0,57.0,29.83,ESE,117,3.0,11.0,93,0.22,,-RA,0.78,VWS V14.01,2013-06-07 15:57:00,
2013-06-07 12:02:00,59.1,57.1,29.83,South,176,6.0,6.0,93,0.21,,-RA,0.79,VWS V14.01,2013-06-07 16:02:00,
2013-06-07 12:07:00,59.2,57.2,29.83,SSE,153,2.0,6.0,93,0.21,,-RA,0.79,VWS V14.01,2013-06-07 16:07:00,
2013-06-07 12:12:00,59.2,57.2,29.83,ESE,111,1.0,7.0,93,0.21,,-RA,0.79,VWS V14.01,2013-06-07 16:12:00,
2013-06-07 12:17:00,59.4,57.4,29.83,SW,224,1.0,5.0,93,0.19,,-RA,0.80,VWS V14.01,2013-06-07 16:17:00,
2013-06-07 12:22:00,59.4,57.4,29.82,SSW,207,4.0,8.0,93,0.19,,-RA,0.80,VWS V14.01,2013-06-07 16:22:00,
2013-06-07 12:27:00,59.5,57.5,29.82,East,92,5.0,8.0,93,0.19,,-RA,0.80,VWS V14.01,2013-06-07 16:27:00,
2013-06-07 12:32:00,59.5,57.5,29.82,East,94,2.0,6.0,93,0.09,,-RA,0.80,VWS V14.01,2013-06-07 16:32:00,
2013-06-07 12:37:00,59.5,57.5,29.82,South,170,1.0,8.0,93,0.10,,-RA,0.81,VWS V14.01,2013-06-07 16:37:00,
2013-06-07 12:42:00,59.6,57.6,29.82,SSW,206,3.0,8.0,93,0.10,,-RA,0.81,VWS V14.01,2013-06-07 16:42:00,
2013-06-07 12:47:00,59.5,57.5,29.82,SE,124,2.0,5.0,93,0.05,,-RA,0.81,VWS V14.01,2013-06-07 16:47:00,
2013-06-07 12:52:00,59.6,57.6,29.82,ESE,114,2.0,6.0,93,0.05,,-RA,0.81,VWS V14.01,2013-06-07 16:52:00,
2013-06-07 12:57:00,59.5,57.5,29.82,SSE,153,2.0,9.0,93,0.05,,-RA,0.81,VWS V14.01,2013-06-07 16:57:00,
2013-06-07 13:02:00,59.5,57.5,29.82,East,79,3.0,6.0,93,0.02,,-RA,0.81,VWS V14.01,2013-06-07 17:02:00,
2013-06-07 13:07:00,59.6,57.6,29.81,SSE,158,0.0,6.0,93,0.03,,-RA,0.82,VWS V14.01,2013-06-07 17:07:00,
2013-06-07 13:12:00,59.6,57.6,29.81,SSE,158,4.0,6.0,93,0.04,,-RA,0.83,VWS V14.01,2013-06-07 17:12:00,
2013-06-07 13:17:00,59.7,57.7,29.81,East,83,5.0,6.0,93,0.03,,-RA,0.83,VWS V14.01,2013-06-07 17:17:00,
2013-06-07 13:22:00,59.6,57.6,29.81,SE,135,3.0,8.0,93,0.04,,-RA,0.84,VWS V14.01,2013-06-07 17:22:00,
2013-06-07 13:27:00,59.7,57.7,29.80,NE,53,7.0,8.0,93,0.05,,-RA,0.85,VWS V14.01,2013-06-07 17:27:00,
2013-06-07 13:32:00,59.6,57.6,29.81,ESE,120,2.0,5.0,93,0.05,,-RA,0.85,VWS V14.01,2013-06-07 17:32:00,
2013-06-07 13:37:00,59.8,57.8,29.80,ESE,108,4.0,5.0,93,0.06,,-RA,0.86,VWS V14.01,2013-06-07 17:37:00,
2013-06-07 13:42:00,59.7,57.7,29.80,SE,129,3.0,5.0,93,0.07,,-RA,0.87,VWS V14.01,2013-06-07 17:42:00,
2013-06-07 13:47:00,59.7,57.7,29.79,South,186,3.0,5.0,93,0.07,,-RA,0.88,VWS V14.01,2013-06-07 17:47:00,
2013-06-07 13:52:00,59.7,57.7,29.79,East,96,2.0,5.0,93,0.09,,-RA,0.90,VWS V14.01,2013-06-07 17:52:00,
2013-06-07 13:57:00,59.7,57.7,29.80,SSE,165,2.0,7.0,93,0.10,,-RA,0.91,VWS V14.01,2013-06-07 17:57:00,
2013-06-07 14:02:00,59.8,57.8,29.80,ESE,110,2.0,3.0,93,0.10,,-RA,0.91,VWS V14.01,2013-06-07 18:02:00,
2013-06-07 14:07:00,59.9,57.9,29.80,East,83,2.0,6.0,93,0.11,,-RA,0.92,VWS V14.01,2013-06-07 18:07:00,
2013-06-07 14:12:00,59.7,57.7,29.80,SSE,167,8.0,9.0,93,0.11,,-RA,0.92,VWS V14.01,2013-06-07 18:12:00,
2013-06-07 14:17:00,59.6,57.6,29.79,SSE,167,3.0,7.0,93,0.10,,-RA,0.93,VWS V14.01,2013-06-07 18:17:00,
2013-06-07 14:22:00,59.6,57.6,29.79,SSE,148,4.0,7.0,93,0.10,,-RA,0.93,VWS V14.01,2013-06-07 18:22:00,
2013-06-07 14:27:00,59.5,57.5,29.78,ENE,77,2.0,7.0,93,0.10,,-RA,0.93,VWS V14.01,2013-06-07 18:27:00,
2013-06-07 14:32:00,59.5,57.5,29.78,ENE,76,2.0,7.0,93,0.09,,-RA,0.94,VWS V14.01,2013-06-07 18:32:00,
2013-06-07 14:37:00,59.4,57.4,29.78,South,179,3.0,8.0,93,0.10,,-RA,0.95,VWS V14.01,2013-06-07 18:37:00,
2013-06-07 14:43:00,59.5,57.5,29.78,East,96,5.0,8.0,93,0.11,,-RA,0.96,VWS V14.01,2013-06-07 18:43:00,
2013-06-07 14:48:00,59.5,57.5,29.78,South,173,3.0,8.0,93,0.09,,-RA,0.97,VWS V14.01,2013-06-07 18:48:00,
2013-06-07 14:53:00,59.4,57.4,29.78,South,176,5.0,8.0,93,0.10,,-RA,0.98,VWS V14.01,2013-06-07 18:53:00,
2013-06-07 14:58:00,59.3,57.3,29.77,ENE,74,2.0,8.0,93,0.11,,-RA,0.99,VWS V14.01,2013-06-07 18:58:00,
2013-06-07 15:03:00,59.2,57.2,29.77,ESE,117,2.0,5.0,93,0.08,,-RA,0.99,VWS V14.01,2013-06-07 19:03:00,
2013-06-07 15:08:00,59.3,57.3,29.77,SE,139,3.0,5.0,93,0.08,,-RA,0.99,VWS V14.01,2013-06-07 19:08:00,
2013-06-07 15:13:00,59.3,57.3,29.77,South,184,7.0,8.0,93,0.09,,-RA,1.00,VWS V14.01,2013-06-07 19:13:00,
2013-06-07 15:18:00,59.3,57.3,29.77,ENE,73,5.0,5.0,93,0.07,,-RA,1.00,VWS V14.01,2013-06-07 19:18:00,
2013-06-07 15:23:00,59.3,57.3,29.76,South,187,5.0,7.0,93,0.08,,-RA,1.01,VWS V14.01,2013-06-07 19:23:00,
2013-06-07 15:28:00,59.3,57.3,29.76,SSE,153,5.0,8.0,93,0.09,,-RA,1.02,VWS V14.01,2013-06-07 19:28:00,
2013-06-07 15:33:00,59.2,57.2,29.76,ESE,104,3.0,9.0,93,0.09,,-RA,1.03,VWS V14.01,2013-06-07 19:33:00,
2013-06-07 15:38:00,59.1,57.1,29.76,East,96,4.0,9.0,93,0.10,,-RA,1.04,VWS V14.01,2013-06-07 19:38:00,
2013-06-07 15:43:00,59.0,57.0,29.76,South,181,4.0,9.0,93,0.11,,-RA,1.05,VWS V14.01,2013-06-07 19:43:00,
2013-06-07 15:48:00,59.0,57.0,29.75,SW,228,2.0,11.0,93,0.10,,-RA,1.06,VWS V14.01,2013-06-07 19:48:00,
2013-06-07 15:53:00,59.0,57.0,29.75,ESE,107,3.0,11.0,93,0.11,,-RA,1.07,VWS V14.01,2013-06-07 19:53:00,
2013-06-07 15:58:00,59.1,57.1,29.75,SE,139,4.0,11.0,93,0.11,,-RA,1.07,VWS V14.01,2013-06-07 19:58:00,
2013-06-07 16:04:00,59.1,57.1,29.75,South,170,3.0,6.0,93,0.09,,-RA,1.08,VWS V14.01,2013-06-07 20:04:00,
2013-06-07 16:09:00,59.1,57.1,29.74,SSW,195,0.0,6.0,93,0.10,,-RA,1.09,VWS V14.01,2013-06-07 20:09:00,
2013-06-07 16:14:00,59.1,57.1,29.74,East,93,2.0,6.0,93,0.11,,-RA,1.10,VWS V14.01,2013-06-07 20:14:00,
2013-06-07 16:19:00,59.1,57.1,29.74,ESE,103,2.0,6.0,93,0.10,,-RA,1.10,VWS V14.01,2013-06-07 20:19:00,
2013-06-07 16:24:00,59.1,57.1,29.74,SSW,204,2.0,6.0,93,0.11,,-RA,1.11,VWS V14.01,2013-06-07 20:24:00,
2013-06-07 16:29:00,59.2,57.2,29.73,East,84,2.0,6.0,93,0.12,,-RA,1.12,VWS V14.01,2013-06-07 20:29:00,
2013-06-07 16:34:00,59.2,57.2,29.73,WSW,243,2.0,6.0,93,0.10,,-RA,1.13,VWS V14.01,2013-06-07 20:34:00,
2013-06-07 16:39:00,59.3,57.3,29.73,ENE,77,2.0,7.0,93,0.11,,-RA,1.14,VWS V14.01,2013-06-07 20:39:00,
2013-06-07 16:45:00,59.5,57.5,29.72,East,81,2.0,7.0,93,0.12,,-RA,1.15,VWS V14.01,2013-06-07 20:45:00,
2013-06-07 16:50:00,59.6,57.6,29.72,SW,233,1.0,4.0,93,0.11,,-RA,1.16,VWS V14.01,2013-06-07 20:50:00,
2013-06-07 16:55:00,59.6,57.6,29.72,SSW,193,2.0,5.0,93,0.12,,-RA,1.17,VWS V14.01,2013-06-07 20:55:00,
2013-06-07 17:00:00,59.6,57.6,29.72,SW,219,0.0,5.0,93,0.13,,-RA,1.18,VWS V14.01,2013-06-07 21:00:00,
2013-06-07 17:05:00,59.6,57.6,29.73,SSE,165,0.0,1.0,93,0.11,,-RA,1.19,VWS V14.01,2013-06-07 21:05:00,
2013-06-07 17:10:00,59.5,57.5,29.73,ESE,108,1.0,4.0,93,0.13,,-RA,1.21,VWS V14.01,2013-06-07 21:10:00,
2013-06-07 17:15:00,59.6,57.6,29.73,East,81,4.0,6.0,93,0.15,,-RA,1.23,VWS V14.01,2013-06-07 21:15:00,
2013-06-07 17:20:00,59.5,57.5,29.73,ESE,110,2.0,5.0,93,0.14,,-RA,1.24,VWS V14.01,2013-06-07 21:20:00,
2013-06-07 17:25:00,59.5,57.5,29.71,East,87,2.0,5.0,93,0.15,,-RA,1.25,VWS V14.01,2013-06-07 21:25:00,
2013-06-07 17:30:00,59.5,57.5,29.70,NE,54,5.0,5.0,93,0.17,,-RA,1.27,VWS V14.01,2013-06-07 21:30:00,
2013-06-07 17:35:00,59.5,57.5,29.70,ENE,76,1.0,7.0,93,0.16,,-RA,1.28,VWS V14.01,2013-06-07 21:35:00,
2013-06-07 17:40:00,59.5,57.5,29.70,East,101,2.0,7.0,93,0.17,,-RA,1.29,VWS V14.01,2013-06-07 21:40:00,
2013-06-07 17:45:00,59.5,57.5,29.71,East,93,0.0,7.0,93,0.17,,-RA,1.29,VWS V14.01,2013-06-07 21:45:00,
2013-06-07 17:50:00,59.5,57.5,29.71,NNE,23,5.0,5.0,93,0.14,,-RA,1.29,VWS V14.01,2013-06-07 21:50:00,
2013-06-07 17:55:00,59.5,57.5,29.71,SW,222,0.0,5.0,93,0.14,,-RA,1.29,VWS V14.01,2013-06-07 21:55:00,
2013-06-07 18:00:00,59.4,57.4,29.71,SE,132,0.0,5.0,93,0.14,,OVC007,1.29,VWS V14.01,2013-06-07 22:00:00,
2013-06-07 18:06:00,59.4,57.4,29.71,East,93,0.0,0.0,93,0.12,,OVC007,1.30,VWS V14.01,2013-06-07 22:06:00,
2013-06-07 18:11:00,59.4,57.4,29.71,SSE,158,1.0,4.0,93,0.14,,OVC007,1.32,VWS V14.01,2013-06-07 22:11:00,
2013-06-07 18:16:00,59.3,57.3,29.71,ENE,71,4.0,4.0,93,0.12,,OVC007,1.35,VWS V14.01,2013-06-07 22:16:00,
2013-06-07 18:21:00,59.3,57.3,29.70,East,86,2.0,4.0,93,0.15,,OVC007,1.38,VWS V14.01,2013-06-07 22:21:00,
2013-06-07 18:26:00,59.3,57.3,29.70,ENE,75,1.0,4.0,93,0.18,,OVC007,1.41,VWS V14.01,2013-06-07 22:26:00,
2013-06-07 18:31:00,59.2,57.2,29.70,SSE,166,2.0,2.0,93,0.15,,OVC007,1.42,VWS V14.01,2013-06-07 22:31:00,
2013-06-07 18:36:00,59.3,57.3,29.71,ESE,105,2.0,7.0,93,0.16,,OVC007,1.43,VWS V14.01,2013-06-07 22:36:00,
2013-06-07 18:41:00,59.2,57.2,29.71,East,99,1.0,7.0,93,0.16,,OVC007,1.43,VWS V14.01,2013-06-07 22:41:00,
2013-06-07 18:46:00,59.3,57.3,29.71,SE,124,0.0,0.0,93,0.14,,OVC007,1.43,VWS V14.01,2013-06-07 22:46:00,
2013-06-07 18:51:00,59.2,57.2,29.71,East,89,0.0,1.0,93,0.14,,-RA,1.43,VWS V14.01,2013-06-07 22:51:00,
2013-06-07 18:56:00,59.1,57.1,29.71,East,92,1.0,4.0,93,0.15,,-RA,1.44,VWS V14.01,2013-06-07 22:56:00,
2013-06-07 19:01:00,59.1,57.1,29.72,East,87,2.0,2.0,93,0.15,,-RA,1.44,VWS V14.01,2013-06-07 23:01:00,
2013-06-07 19:06:00,59.1,57.1,29.71,East,88,0.0,2.0,93,0.15,,-RA,1.44,VWS V14.01,2013-06-07 23:06:00,
2013-06-07 19:11:00,59.1,57.1,29.70,East,79,2.0,3.0,93,0.17,,-RA,1.46,VWS V14.01,2013-06-07 23:11:00,
2013-06-07 19:17:00,59.1,57.1,29.70,SW,228,1.0,1.0,93,0.15,,-RA,1.49,VWS V14.01,2013-06-07 23:17:00,
2013-06-07 19:22:00,59.0,57.0,29.69,East,100,7.0,7.0,93,0.17,,-RA,1.51,VWS V14.01,2013-06-07 23:22:00,
2013-06-07 19:27:00,59.0,57.0,29.69,NE,56,3.0,7.0,93,0.17,,-RA,1.51,VWS V14.01,2013-06-07 23:27:00,
2013-06-07 19:32:00,59.0,57.0,29.69,ENE,65,1.0,2.0,93,0.10,,-RA,1.52,VWS V14.01,2013-06-07 23:32:00,
2013-06-07 19:37:00,59.0,57.0,29.69,East,94,0.0,6.0,93,0.10,,-RA,1.52,VWS V14.01,2013-06-07 23:37:00,
2013-06-07 19:42:00,59.0,57.0,29.69,East,96,2.0,6.0,93,0.10,,-RA,1.52,VWS V14.01,2013-06-07 23:42:00,
2013-06-07 19:47:00,59.0,57.0,29.69,East,82,3.0,4.0,93,0.09,,-RA,1.52,VWS V14.01,2013-06-07 23:47:00,
2013-06-07 19:52:00,59.0,57.0,29.68,SE,131,3.0,9.0,93,0.09,,-RA,1.52,VWS V14.01,2013-06-07 23:52:00,
2013-06-07 19:57:00,59.0,57.0,29.68,SE,125,0.0,9.0,93,0.09,,-RA,1.52,VWS V14.01,2013-06-07 23:57:00,
2013-06-07 20:02:00,59.0,57.0,29.68,ESE,114,4.0,7.0,93,0.08,,-RA,1.52,VWS V14.01,2013-06-08 00:02:00,
2013-06-07 20:08:00,59.0,57.0,29.68,East,79,3.0,7.0,93,0.08,,-RA,1.52,VWS V14.01,2013-06-08 00:08:00,
2013-06-07 20:13:00,58.9,56.9,29.67,ENE,66,3.0,7.0,93,0.09,,-RA,1.53,VWS V14.01,2013-06-08 00:13:00,
2013-06-07 20:18:00,58.9,56.9,29.67,SSW,212,3.0,5.0,93,0.06,,-RA,1.55,VWS V14.01,2013-06-08 00:18:00,
2013-06-07 20:23:00,58.9,56.9,29.68,SW,225,2.0,6.0,93,0.08,,-RA,1.57,VWS V14.01,2013-06-08 00:23:00,
2013-06-07 20:28:00,58.9,56.9,29.68,ESE,123,2.0,7.0,93,0.09,,-RA,1.58,VWS V14.01,2013-06-08 00:28:00,
2013-06-07 20:33:00,58.8,56.8,29.67,ESE,102,5.0,8.0,93,0.07,,-RA,1.59,VWS V14.01,2013-06-08 00:33:00,
2013-06-07 20:38:00,58.8,56.8,29.67,East,80,4.0,8.0,93,0.09,,-RA,1.61,VWS V14.01,2013-06-08 00:38:00,
2013-06-07 20:43:00,58.8,56.8,29.67,East,99,4.0,8.0,93,0.10,,-RA,1.62,VWS V14.01,2013-06-08 00:43:00,
2013-06-07 20:48:00,58.7,56.7,29.67,ESE,102,4.0,5.0,93,0.12,,-RA,1.64,VWS V14.01,2013-06-08 00:48:00,
2013-06-07 20:53:00,58.7,56.7,29.66,East,96,1.0,5.0,93,0.12,,-RA,1.64,VWS V14.01,2013-06-08 00:53:00,
2013-06-07 20:59:00,58.6,56.6,29.66,ESE,114,2.0,11.0,93,0.14,,-RA,1.66,VWS V14.01,2013-06-08 00:59:00,
2013-06-07 21:04:00,58.6,56.6,29.65,East,79,5.0,8.0,93,0.15,,RA,1.67,VWS V14.01,2013-06-08 01:04:00,
2013-06-07 21:09:00,58.6,56.6,29.64,East,79,5.0,8.0,93,0.15,,RA,1.67,VWS V14.01,2013-06-08 01:09:00,
2013-06-07 21:14:00,58.6,56.6,29.64,East,101,3.0,8.0,93,0.19,,RA,1.71,VWS V14.01,2013-06-08 01:14:00,
2013-06-07 21:19:00,58.6,56.6,29.64,NE,53,1.0,6.0,93,0.19,,RA,1.73,VWS V14.01,2013-06-08 01:19:00,
2013-06-07 21:24:00,58.6,56.6,29.64,SE,128,2.0,9.0,93,0.20,,RA,1.74,VWS V14.01,2013-06-08 01:24:00,
2013-06-07 21:29:00,58.6,56.6,29.65,ESE,109,6.0,9.0,93,0.21,,RA,1.75,VWS V14.01,2013-06-08 01:29:00,
2013-06-07 21:34:00,58.5,56.5,29.65,SSE,167,4.0,8.0,93,0.18,,RA,1.76,VWS V14.01,2013-06-08 01:34:00,
2013-06-07 21:39:00,58.5,56.5,29.64,SE,127,2.0,9.0,93,0.18,,RA,1.76,VWS V14.01,2013-06-08 01:39:00,
2013-06-07 21:44:00,58.4,56.4,29.64,East,90,2.0,9.0,93,0.18,,RA,1.76,VWS V14.01,2013-06-08 01:44:00,
2013-06-07 21:49:00,58.4,56.4,29.65,East,82,6.0,8.0,93,0.14,,RA,1.77,VWS V14.01,2013-06-08 01:49:00,
2013-06-07 21:54:00,58.4,56.4,29.65,ENE,66,2.0,13.0,93,0.15,,RA,1.78,VWS V14.01,2013-06-08 01:54:00,
2013-06-07 21:59:00,58.3,56.3,29.64,WSW,237,2.0,13.0,93,0.17,,RA,1.80,VWS V14.01,2013-06-08 01:59:00,
2013-06-07 22:04:00,58.3,56.3,29.63,SE,129,0.0,10.0,93,0.16,,RA,1.82,VWS V14.01,2013-06-08 02:04:00,
2013-06-07 22:09:00,58.3,56.3,29.64,East,96,5.0,10.0,93,0.18,,RA,1.84,VWS V14.01,2013-06-08 02:09:00,
2013-06-07 22:14:00,58.3,56.3,29.64,ESE,112,8.0,13.0,93,0.20,,RA,1.86,VWS V14.01,2013-06-08 02:14:00,
2013-06-07 22:19:00,58.2,56.2,29.64,ESE,114,6.0,7.0,93,0.16,,RA,1.87,VWS V14.01,2013-06-08 02:19:00,
2013-06-07 22:25:00,58.3,56.3,29.64,East,99,3.0,7.0,93,0.19,,RA,1.90,VWS V14.01,2013-06-08 02:25:00,
2013-06-07 22:30:00,58.3,56.3,29.64,SSE,160,2.0,7.0,93,0.20,,RA,1.91,VWS V14.01,2013-06-08 02:30:00,
2013-06-07 22:35:00,58.2,56.2,29.64,East,101,3.0,6.0,93,0.18,,RA,1.93,VWS V14.01,2013-06-08 02:35:00,
2013-06-07 22:40:00,58.2,56.2,29.63,ENE,74,5.0,6.0,93,0.21,,RA,1.96,VWS V14.01,2013-06-08 02:40:00,
2013-06-07 22:45:00,58.2,56.2,29.63,ESE,108,3.0,10.0,93,0.27,,RA,2.02,VWS V14.01,2013-06-08 02:45:00,
2013-06-07 22:50:00,58.1,56.1,29.62,SE,129,3.0,7.0,93,0.28,,RA,2.04,VWS V14.01,2013-06-08 02:50:00,
2013-06-07 22:55:00,58.0,56.0,29.62,East,84,3.0,7.0,93,0.30,,RA,2.06,VWS V14.01,2013-06-08 02:55:00,
2013-06-07 23:00:00,58.0,56.0,29.62,NE,39,7.0,10.0,93,0.32,,RA,2.08,VWS V14.01,2013-06-08 03:00:00,
2013-06-07 23:05:00,57.9,55.9,29.62,SSE,153,2.0,9.0,93,0.29,,RA,2.10,VWS V14.01,2013-06-08 03:05:00,
2013-06-07 23:11:00,57.9,55.9,29.62,SE,135,2.0,9.0,93,0.29,,RA,2.10,VWS V14.01,2013-06-08 03:11:00,
2013-06-07 23:16:00,57.9,55.9,29.62,ESE,114,2.0,3.0,93,0.24,,RA,2.10,VWS V14.01,2013-06-08 03:16:00,
2013-06-07 23:21:00,57.8,55.8,29.62,SSE,152,0.0,7.0,93,0.25,, +RA,2.11,VWS V14.01,2013-06-08 03:21:00,
2013-06-07 23:26:00,57.8,55.8,29.61,ESE,105,4.0,7.0,93,0.26,, +RA,2.12,VWS V14.01,2013-06-08 03:26:00,
2013-06-07 23:31:00,57.8,55.8,29.61,ENE,74,3.0,4.0,93,0.20,, +RA,2.12,VWS V14.01,2013-06-08 03:31:00,
2013-06-07 23:36:00,57.7,55.7,29.61,NE,51,1.0,4.0,93,0.21,,RA,2.13,VWS V14.01,2013-06-08 03:36:00,
2013-06-07 23:41:00,57.7,55.7,29.61,ENE,68,0.0,4.0,93,0.21,,RA,2.13,VWS V14.01,2013-06-08 03:41:00,
2013-06-07 23:46:00,57.6,55.6,29.61,ENE,57,2.0,3.0,93,0.11,,RA,2.13,VWS V14.01,2013-06-08 03:46:00,
2013-06-07 23:51:00,57.6,55.6,29.61,ESE,103,2.0,6.0,93,0.11,,RA,2.13,VWS V14.01,2013-06-08 03:51:00,
2013-06-07 23:56:00,57.5,55.5,29.61,ENE,77,1.0,6.0,93,0.11,,RA,2.13,VWS V14.01,2013-06-08 03:56:00,